OpenBCM V1.07b12 (Linux)

Packet Radio Mailbox

DB0FHN

[JN59NK Nuernberg]

 Login: GUEST





  
DB3DH  > KEPLER   22.04.03 12:28l 169 Lines 8011 Bytes #999 (20) @ DL
BID : M4DDB0GOS00M
Read: DB0FHN GUEST
Subj: 2Line 17.04.03 (AMSAT)
Path: DB0FHN<DB0ZWI<DB0CHZ<DB0ERF<DB0FBB<DB0GOS
Sent: 030422/1025z @:DB0GOS.#NRW.DEU.EU [Essen, JO31LJ] openbcm1.03 LT:020
From: DB3DH @ DB0GOS.#NRW.DEU.EU (Gerd)
To:   KEPLER @ DL
X-Info: No login password

SB KEPS @ AMSAT  $ORB03107.N
2Line Orbital Elements 03107.AMSAT

HR AMSAT ORBITAL ELEMENTS FOR AMATEUR SATELLITES IN NASA FORMAT
FROM WA5QGD FORT WORTH,TX April 17, 2003
SEND SUBSCRIBE/UNSUBSCRIBE TO majordomo@amsat.org ONLY
BID: ORB03107.N

DECODE 2-LINE ELSETS WITH THE FOLLOWING KEY:
1 AAAAAU 00  0  0 BBBBB.BBBBBBBB  .CCCCCCCC  00000-0  00000-0 0  DDDZ
2 AAAAA EEE.EEEE FFF.FFFF GGGGGGG HHH.HHHH III.IIII JJ.JJJJJJJJKKKKKZ
KEY: A-CATALOGNUM B-EPOCHTIME C-DECAY D-ELSETNUM E-INCLINATION F-RAAN
G-ECCENTRICITY H-ARGPERIGEE I-MNANOM J-MNMOTION K-ORBITNUM Z-CHECKSUM

TO ALL RADIO AMATEURS BT

AO-07
1 07530U 74089B   03106.67356369 -.00000029  00000-0  10000-3 0 01716
2 07530 101.7502 153.8992 0012321 328.7290 031.3047 12.53565175300348
AO-10
1 14129U 83058B   03107.20770856 -.00000144  00000-0  10000-3 0  9272
2 14129  26.0769 154.8618 6004664 344.5802   3.2724  2.05869259149226
UO-11
1 14781U 84021B   03107.55899613  .00000820  00000-0  12055-3 0  1249
2 14781  98.1271  81.9700 0010208  30.6494 329.5310 14.78172735 24805
RS-10/11
1 18129U 87054A   03106.94798932  .00000068  00000-0  57926-4 0 02299
2 18129 082.9204 104.1169 0013509 067.6584 292.6008 13.72707152792385
FO-20
1 20480U 90013C   03106.92346762 -.00000011  00000-0  52883-4 0 04927
2 20480 099.0565 058.9155 0539491 233.9220 121.0764 12.83331554617870
RS-12/13
1 21089U 91007A   03106.61568684  .00000049  00000-0  35292-4 0 05074
2 21089 082.9214 139.0632 0030496 125.2899 235.1114 13.74410227611624
RS-15
1 23439U 94085A   03106.94342824 -.00000024  00000-0  53064-3 0 07012
2 23439 064.8157 308.7079 0146499 103.9946 257.7319 11.27548697342062
FO-29
1 24278U 96046B   03106.93263440  .00000042  00000-0  76640-4 0 05864
2 24278 098.5455 250.3858 0351480 067.7983 296.0049 13.52879201329061
SO-33
1 25509U 98061B   03107.20938158  .00000358  00000-0  61652-4 0  8250
2 25509  31.4285 187.6478 0357104  86.2520 277.8832 14.27484555233550
AO-40
1 26609U 00072B   03101.06918723 -.00000337  00000-0  10000-3 0  3243
2 26609   8.4684  54.7135 7954739 162.8251 262.9704  1.25597299 11235
UO-14
1 20437U 90005B   03106.68464532  .00000083  00000-0  47016-4 0  2107
2 20437  98.2614 147.5408 0011658  35.4336 324.7607 14.31257854690668
AO-16
1 20439U 90005D   03106.62020954  .00000110  00000-0  56774-4 0  8792
2 20439  98.3061 159.4917 0011657  42.9059 317.3035 14.31495686690691
WO-18
1 20441U 90005F   03107.85583016  .00000108  00000-0  56219-4 0   607
2 20441  98.3208 163.8757 0012507  39.2677 320.9409 14.31577267690925
LO-19
1 20442U 90005G   03106.70942263  .00000102  00000-0  53929-4 0 00096
2 20442 098.3376 165.9053 0012900 040.0237 320.1890 14.31740885690815
UO-22
1 21575U 91050B   03107.56090131  .00000239  00000-0  90345-4 0  7763
2 21575  98.1471  96.7906 0007127 327.4469  32.6279 14.39198438616621
KO-23
1 22077U 92052B   03107.17560790 -.00000037  00000-0  10000-3 0  1696
2 22077  66.0845   5.0901 0015598 261.5286  98.3964 12.86410556501713
AO-27
1 22825U 93061C   03107.87045557  .00000099  00000-0  55249-4 0  5342
2 22825  98.2706 134.5836 0009625  86.3150 273.9132 14.28964513498201
IO-26
1 22826U 93061D   03107.82159304  .00000114  00000-0  60928-4 0  3373
2 22826  98.2699 135.6757 0009985  84.8395 275.3924 14.29189510498246
KO-25
1 22828U 93061F   03107.64807516  .00000087  00000-0  49967-4 0  4741
2 22828  98.2624 135.7745 0010975  66.8751 293.3587 14.29528075466424
TO-31
1 25396U 98043C   03106.96120389 -.00000043  00000-0  00000-0 0 08411
2 25396 098.6162 182.9104 0002013 352.1363 007.9785 14.23529731247694
GO-32
1 25397U 98043D   03106.93510874  .00000036  00000-0  35152-4 0 01662
2 25397 098.6138 181.6945 0001434 022.9855 337.1386 14.22973451247653
UO-36
1 25693U 99021A   03107.73440857  .00000224  00000-0  51880-4 0  8842
2 25693  64.5623 192.7469 0025703 312.8357  47.0586 14.76452482214849
AO-37
1 26065U 00004E   03107.50180482  .00000102  00000-0  55407-4 0  7820
2 26065 100.1987 172.7207 0037940 124.6385 235.8382 14.35537304168691
SO-41
1 26545U 00057A   03107.55878709  .00000702  00000-0  11207-3 0  4396
2 26545  64.5591 213.6694 0047639 229.5945 130.0965 14.79133728137796
MO-46
1 26548U 00057D   03107.28829745  .00000970  00000-0  14044-3 0  4428
2 26548  64.5575 206.7420 0040890 230.0407 129.7116 14.81467719137913
SO-42
1 26549U 00057E   03106.75710708  .00000755  00000-0  12168-3 0 07360
2 26549 064.5525 220.5422 0052138 229.3080 130.3488 14.78063681137591
NO-44
1 26931U 01043C   03106.98155391  .00000111  00000-0  76163-4 0 04579
2 26931 067.0469 107.8071 0005861 273.7340 086.3090 14.29147780080552
AO-49
1 27605U 02058A   03107.82624696  .00000309  00000-0  70808-4 0  1103
2 27605  64.5516  20.3229 0034891  86.4887 274.0196 14.71462555 17381
SO-50
1 27607U 02058C   03107.26584043  .00000546  00000-0  11195-3 0  1032
2 27607  64.5520  22.8702 0036236  83.3992 277.1227 14.70034792 17284
NOAA-10
1 16969U 86073A   03107.46169111  .00000126  00000-0  69969-4 0  7399
2 16969  98.7358 101.4809 0011627 280.8336  79.1538 14.27089054862169
NOAA-11
1 19531U 88089A   03107.44223867  .00000130  00000-0  91053-4 0  5766
2 19531  98.8922 188.6078 0012219  42.4954 317.7161 14.14565650750982
NOAA-12
1 21263U 91032A   03107.47728145  .00000236  00000-0  11890-3 0   464
2 21263  98.6328  96.1614 0011999 209.9926 150.0567 14.25123388619462
MET-3/5
1 21655U 91056A   03107.56434599  .00000051  00000-0  10000-3 0  5150
2 21655  82.5603 357.9004 0014645  54.4357 305.8130 13.16982987561119
MET-2/21
1 22782U 93055A   03107.82404464  .00000152  00000-0  12461-3 0  5717
2 22782  82.5506 168.7092 0022762 178.5847 181.5392 13.83536548486149
OKEAN-4
1 23317U 94066A   03106.94312421  .00000966  00000-0  12117-3 0 02996
2 23317 082.5367 275.5180 0021605 220.8451 139.1152 14.81067879458597
NOAA-14
1 23455U 94089A   03107.52610865  .00000132  00000-0  95239-4 0  5975
2 23455  99.1856 127.6179 0010233  68.3759 291.8501 14.13320178427660
SICH-1
1 23657U 95046A   03106.98417267  .00000909  00000-0  11635-3 0 00359
2 23657 082.5290 056.2557 0023433 201.0967 158.9280 14.80118078410726
NOAA-15
1 25338U 98030A   03107.48584350  .00000160  00000-0  87565-4 0   824
2 25338  98.5475 128.0621 0011065 143.7622 216.4310 14.24272715256048
RESURS
1 25394U 98043A   03107.18706611  .00000069  00000-0  49058-4 0  4965
2 25394  98.6207 184.0229 0000810 340.3193  19.7954 14.23899419247733
FENGYUN1
1 25730U 99025A   03107.91186705 -.00000018  00000-0  13415-4 0  8144
2 25730  98.6282 130.1125 0014075 192.9808 167.1004 14.11740252202865
OKEAN-0
1 25860U 99039A   03106.98176750  .00000400  00000-0  70191-4 0 00812
2 25860 097.8564 152.6373 0000662 120.8083 239.3190 14.72691954201384
NOAA-16
1 26536U 00055A   03107.26589219  .00000506  00000-0  30100-3 0  2930
2 26536  98.9102  55.1521 0011148 139.3330 220.8685 14.11939913132298
NOAA-17
1 27453U 02032A   03107.49145511  .00000221  00000-0  11699-3 0  3773
2 27453  98.7454 178.3674 0011867 184.4426 175.6649 14.23330343 42200
HUBBLE
1 20580U 90037B   03107.13229966 -.00000183  00000-0 -28675-4 0  3960
2 20580  28.4682  24.0413 0004537 159.5975 341.1301 14.98062709511276
UARS
1 21701U 91063B   03107.43081317  .00000205  00000-0  34026-4 0  8724
2 21701  56.9803 157.8309 0004770  82.0280 278.1273 15.02984396634410
PO-34
1 25520U 98064B   03106.57790866  .00001647  00000-0  77698-4 0 06681
2 25520 028.4629 204.0514 0006154 252.9469 107.0436 15.14181199246234
ISS
1 25544U 98067A   03107.78522128  .00018179  00000-0  24190-3 0  9025
2 25544  51.6332 323.6481 0006482  29.6746  23.0717 15.58210703251586
WO-39
1 26061U 00004A   03107.54411154  .00000392  00000-0  14813-3 0  8145
2 26061 100.1950 175.3417 0035895 115.8038 244.6853 14.37898365168862
OO-38
1 26063U 00004C   03107.19759821  .00000085  00000-0  49453-4 0  7646
2 26063 100.2019 172.1985 0037334 124.0573 236.4152 14.35507139168654
NO-45
1 26932U 01043D   03107.86229051  .00000040  00000-0  48008-4 0  4469
2 26932  67.0537 105.2309 0003984 264.1523  95.9124 14.29317559 80700


Read previous mail | Read next mail


 18.09.2025 04:51:44lGo back Go up